^^
Saratoga-Weather Station Historical Data
Daily Summary for August 2, 2020 Units:  Metric    English   Both
Daily Weekly Monthly Yearly Custom
  High: Low: Average:
Temperature: 25.7 °C 19.3 °C 22.3 °C
Dew Point: 17.6 °C 10.6 °C 14 °C
Humidity: 86% 40% 61%
Wind Speed: 20.9km/h 0km/h 6.1km/h
Wind Gust: 24.1km/h - -
Wind- - West
Pressure: 1014.6 hPa 1012.2 hPa -
Precipitation: 0.0 mm    
Historical Graphs
 
 
Tabular Data for August 2, 2020
Time Temperature Dew Point Pressure Wind Wind Speed Wind Gust Humidity Rainfall Rate (Hourly) solar
00:00 23.8 °C 16.8 °C 1012.5 hPa WSW 7.9 km/h 12.9 km/h 65% 0.0 mm 0 W/m2
00:10 23.7 °C 17 °C 1012.5 hPa West 11.1 km/h 14.5 km/h 66% 0.0 mm 0 W/m2
00:15 23.6 °C 16.9 °C 1012.5 hPa West 6.4 km/h 12.9 km/h 66% 0.0 mm 0 W/m2
00:20 23.6 °C 17.1 °C 1012.9 hPa NW 7.9 km/h 11.3 km/h 67% 0.0 mm 0 W/m2
00:25 23.5 °C 17 °C 1012.9 hPa West 3.2 km/h 14.5 km/h 67% 0.0 mm 0 W/m2
00:30 23.4 °C 16.9 °C 1012.9 hPa NW 3.2 km/h 11.3 km/h 67% 0.0 mm 0 W/m2
00:35 23.3 °C 17.1 °C 1012.9 hPa WSW 4.7 km/h 14.5 km/h 68% 0.0 mm 0 W/m2
00:40 23.2 °C 17.2 °C 1012.9 hPa WSW 7.9 km/h 11.3 km/h 69% 0.0 mm 0 W/m2
00:45 23.1 °C 17.1 °C 1012.9 hPa NW 4.7 km/h 4.8 km/h 69% 0.0 mm 0 W/m2
00:50 23 °C 17 °C 1012.9 hPa WSW 3.2 km/h 6.4 km/h 69% 0.0 mm 0 W/m2
00:55 22.9 °C 17.1 °C 1012.9 hPa West 6.4 km/h 12.9 km/h 70% 0.0 mm 0 W/m2
01:00 22.9 °C 17.1 °C 1012.9 hPa West 3.2 km/h 4.8 km/h 70% 0.0 mm 0 W/m2
01:06 22.8 °C 17 °C 1012.5 hPa West 6.4 km/h 12.9 km/h 70% 0.0 mm 0 W/m2
01:11 22.7 °C 16.9 °C 1012.5 hPa West 3.2 km/h 4.8 km/h 70% 0.0 mm 0 W/m2
01:16 22.6 °C 16.8 °C 1012.5 hPa West 3.2 km/h 12.9 km/h 70% 0.0 mm 0 W/m2
01:21 22.6 °C 17.1 °C 1012.9 hPa WSW 4.7 km/h 6.4 km/h 71% 0.0 mm 0 W/m2
01:26 22.4 °C 16.9 °C 1012.5 hPa West 1.4 km/h 9.7 km/h 71% 0.0 mm 0 W/m2
01:31 22.4 °C 16.9 °C 1012.9 hPa Calm   1.6 km/h 71% 0.0 mm 0 W/m2
01:36 22.3 °C 16.8 °C 1012.9 hPa West 3.2 km/h 6.4 km/h 71% 0.0 mm 0 W/m2
01:41 22.3 °C 16.8 °C 1012.9 hPa West 3.2 km/h 4.8 km/h 71% 0.0 mm 0 W/m2
01:46 22.3 °C 16.8 °C 1012.9 hPa WSW 4.7 km/h 4.8 km/h 71% 0.0 mm 0 W/m2
01:51 22.3 °C 16.8 °C 1012.9 hPa West 1.4 km/h 4.8 km/h 71% 0.0 mm 0 W/m2
01:56 22.3 °C 16.8 °C 1012.9 hPa West 1.4 km/h 3.2 km/h 71% 0.0 mm 0 W/m2
02:01 22.3 °C 16.8 °C 1012.9 hPa West 4.7 km/h 4.8 km/h 71% 0.0 mm 0 W/m2
02:06 22.3 °C 16.8 °C 1012.9 hPa WSW 1.4 km/h 4.8 km/h 71% 0.0 mm 0 W/m2
02:11 22.3 °C 16.8 °C 1012.9 hPa West 4.7 km/h 4.8 km/h 71% 0.0 mm 0 W/m2
02:16 22.3 °C 17 °C 1012.9 hPa WSW 7.9 km/h 9.7 km/h 72% 0.0 mm 0 W/m2
02:21 22.3 °C 17 °C 1012.9 hPa WNW 4.7 km/h 4.8 km/h 72% 0.0 mm 0 W/m2
02:26 22.2 °C 16.9 °C 1012.9 hPa WNW 3.2 km/h 6.4 km/h 72% 0.0 mm 0 W/m2
02:31 22.2 °C 17.1 °C 1012.9 hPa WNW 7.9 km/h 9.7 km/h 73% 0.0 mm 0 W/m2
02:36 22.1 °C 17 °C 1012.9 hPa WNW 1.4 km/h 6.4 km/h 73% 0.0 mm 0 W/m2
02:41 22.1 °C 17 °C 1013.2 hPa WNW 3.2 km/h 12.9 km/h 73% 0.0 mm 0 W/m2
02:46 22 °C 17.2 °C 1013.2 hPa West 6.4 km/h 11.3 km/h 74% 0.0 mm 0 W/m2
02:51 21.9 °C 17.1 °C 1013.2 hPa WNW 4.7 km/h 9.7 km/h 74% 0.0 mm 0 W/m2
02:56 21.8 °C 17 °C 1013.2 hPa West 6.4 km/h 6.4 km/h 74% 0.0 mm 0 W/m2
03:01 21.8 °C 17.2 °C 1013.2 hPa West 4.7 km/h 4.8 km/h 75% 0.0 mm 0 W/m2
03:06 21.7 °C 17.1 °C 1013.2 hPa WSW 4.7 km/h 4.8 km/h 75% 0.0 mm 0 W/m2
03:11 21.7 °C 17.1 °C 1013.2 hPa West 4.7 km/h 11.3 km/h 75% 0.0 mm 0 W/m2
03:17 21.7 °C 17.1 °C 1013.2 hPa WSW 4.7 km/h 9.7 km/h 75% 0.0 mm 0 W/m2
03:22 21.7 °C 17.1 °C 1013.2 hPa WSW 7.9 km/h 11.3 km/h 75% 0.0 mm 0 W/m2
03:27 21.7 °C 17.1 °C 1013.2 hPa WSW 1.4 km/h 4.8 km/h 75% 0.0 mm 0 W/m2
03:32 21.7 °C 17.3 °C 1013.2 hPa West 3.2 km/h 9.7 km/h 76% 0.0 mm 0 W/m2
03:37 21.6 °C 17.2 °C 1013.2 hPa West 4.7 km/h 6.4 km/h 76% 0.0 mm 0 W/m2
03:42 21.5 °C 17.3 °C 1013.2 hPa NW 6.4 km/h 9.7 km/h 77% 0.0 mm 0 W/m2
03:47 21.4 °C 17.2 °C 1013.2 hPa WNW 3.2 km/h 6.4 km/h 77% 0.0 mm 0 W/m2
03:52 21.3 °C 17.3 °C 1013.2 hPa West 9.7 km/h 9.7 km/h 78% 0.0 mm 0 W/m2
03:57 21.3 °C 17.3 °C 1013.2 hPa West 4.7 km/h 9.7 km/h 78% 0.0 mm 0 W/m2
04:02 21.2 °C 17.2 °C 1013.2 hPa NW 7.9 km/h 9.7 km/h 78% 0.0 mm 0 W/m2
04:07 21.1 °C 17.3 °C 1012.9 hPa West 4.7 km/h 9.7 km/h 79% 0.0 mm 0 W/m2
04:12 21 °C 17.4 °C 1012.9 hPa West 11.1 km/h 11.3 km/h 80% 0.0 mm 0 W/m2
04:17 20.7 °C 17.5 °C 1013.2 hPa West 3.2 km/h 12.9 km/h 82% 0.0 mm 0 W/m2
04:22 20.4 °C 17.6 °C 1013.2 hPa West 4.7 km/h 4.8 km/h 84% 0.0 mm 0 W/m2
04:27 20.2 °C 17.4 °C 1013.2 hPa SW 4.7 km/h 6.4 km/h 84% 0.0 mm 0 W/m2
04:32 19.9 °C 17.3 °C 1013.2 hPa West 11.1 km/h 11.3 km/h 85% 0.0 mm 0 W/m2
04:37 19.9 °C 17.5 °C 1013.2 hPa West 4.7 km/h 6.4 km/h 86% 0.0 mm 0 W/m2
04:42 19.9 °C 17.3 °C 1013.2 hPa WNW 4.7 km/h 9.7 km/h 85% 0.0 mm 0 W/m2
04:47 20.1 °C 17.5 °C 1013.2 hPa WSW 7.9 km/h 12.9 km/h 85% 0.0 mm 0 W/m2
04:52 20.1 °C 17.3 °C 1013.2 hPa WSW 11.1 km/h 17.7 km/h 84% 0.0 mm 0 W/m2
04:57 20.1 °C 17.3 °C 1013.2 hPa WNW 11.1 km/h 11.3 km/h 84% 0.0 mm 0 W/m2
05:02 20.1 °C 17.1 °C 1013.2 hPa West 9.7 km/h 17.7 km/h 83% 0.0 mm 0 W/m2
05:07 20.1 °C 17.1 °C 1013.2 hPa West 4.7 km/h 14.5 km/h 83% 0.0 mm 0 W/m2
05:12 20.1 °C 17.1 °C 1013.2 hPa West 6.4 km/h 16.1 km/h 83% 0.0 mm 0 W/m2
05:17 20 °C 17 °C 1013.2 hPa West 4.7 km/h 11.3 km/h 83% 0.0 mm 0 W/m2
05:22 19.9 °C 16.9 °C 1013.2 hPa NW 1.4 km/h 6.4 km/h 83% 0.0 mm 0 W/m2
05:27 19.9 °C 17.1 °C 1013.2 hPa NW 4.7 km/h 6.4 km/h 84% 0.0 mm 0 W/m2
05:32 19.8 °C 17 °C 1013.2 hPa West 6.4 km/h 9.7 km/h 84% 0.0 mm 0 W/m2
05:37 19.8 °C 17 °C 1013.2 hPa West 4.7 km/h 6.4 km/h 84% 0.0 mm 0 W/m2
05:42 19.8 °C 17 °C 1013.5 hPa West 4.7 km/h 9.7 km/h 84% 0.0 mm 0 W/m2
05:47 19.8 °C 17 °C 1013.2 hPa West 4.7 km/h 4.8 km/h 84% 0.0 mm 0 W/m2
05:52 19.7 °C 16.9 °C 1013.5 hPa West 3.2 km/h 8 km/h 84% 0.0 mm 0 W/m2
05:57 19.7 °C 16.9 °C 1013.5 hPa West 4.7 km/h 11.3 km/h 84% 0.0 mm 0 W/m2
06:02 19.8 °C 16.8 °C 1013.5 hPa West 6.4 km/h 12.9 km/h 83% 0.0 mm 0 W/m2
06:12 19.8 °C 16.6 °C 1013.2 hPa WSW 6.4 km/h 12.9 km/h 82% 0.0 mm 0 W/m2
06:17 19.8 °C 16.4 °C 1013.2 hPa West 4.7 km/h 9.7 km/h 81% 0.0 mm 0 W/m2
06:22 19.8 °C 16.4 °C 1013.2 hPa West 3.2 km/h 9.7 km/h 81% 0.0 mm 0 W/m2
06:32 19.7 °C 16.3 °C 1013.2 hPa West 6.4 km/h 8 km/h 81% 0.0 mm 9 W/m2
06:37 19.6 °C 16.2 °C 1013.2 hPa West 3.2 km/h 4.8 km/h 81% 0.0 mm 12 W/m2
06:42 19.5 °C 16.2 °C 1013.2 hPa NW 3.2 km/h 8 km/h 81% 0.0 mm 14 W/m2
06:47 19.4 °C 16.1 °C 1013.2 hPa West 4.7 km/h 11.3 km/h 81% 0.0 mm 19 W/m2
06:52 19.4 °C 15.9 °C 1013.5 hPa WNW 4.7 km/h 8 km/h 80% 0.0 mm 21 W/m2
06:57 19.4 °C 15.9 °C 1013.5 hPa WSW 4.7 km/h 4.8 km/h 80% 0.0 mm 23 W/m2
07:02 19.3 °C 15.8 °C 1013.5 hPa West 3.2 km/h 4.8 km/h 80% 0.0 mm 23 W/m2
07:07 19.3 °C 15.8 °C 1013.5 hPa West 3.2 km/h 6.4 km/h 80% 0.0 mm 25 W/m2
07:12 19.3 °C 15.8 °C 1013.5 hPa West 6.4 km/h 6.4 km/h 80% 0.0 mm 26 W/m2
07:23 19.3 °C 15.6 °C 1013.5 hPa West 4.7 km/h 9.7 km/h 79% 0.0 mm 30 W/m2
07:28 19.3 °C 15.6 °C 1013.5 hPa West 4.7 km/h 4.8 km/h 79% 0.0 mm 33 W/m2
07:33 19.3 °C 15.6 °C 1013.5 hPa WSW 3.2 km/h 9.7 km/h 79% 0.0 mm 35 W/m2
07:38 19.3 °C 15.6 °C 1013.5 hPa West 3.2 km/h 4.8 km/h 79% 0.0 mm 40 W/m2
07:43 19.3 °C 15.6 °C 1013.5 hPa WNW 3.2 km/h 6.4 km/h 79% 0.0 mm 46 W/m2
07:48 19.3 °C 15.6 °C 1013.5 hPa NW 3.2 km/h 4.8 km/h 79% 0.0 mm 49 W/m2
07:58 19.4 °C 15.7 °C 1013.5 hPa WNW 1.4 km/h 4.8 km/h 79% 0.0 mm 77 W/m2
08:03 19.4 °C 15.7 °C 1013.5 hPa WNW 3.2 km/h 6.4 km/h 79% 0.0 mm 84 W/m2
08:08 19.5 °C 15.8 °C 1013.5 hPa West 3.2 km/h 4.8 km/h 79% 0.0 mm 93 W/m2
08:13 19.6 °C 15.7 °C 1013.5 hPa WNW 3.2 km/h 4.8 km/h 78% 0.0 mm 104 W/m2
08:18 19.7 °C 15.8 °C 1013.5 hPa WNW 4.7 km/h 4.8 km/h 78% 0.0 mm 113 W/m2
08:23 19.7 °C 15.6 °C 1013.9 hPa West 4.7 km/h 12.9 km/h 77% 0.0 mm 114 W/m2
08:28 19.7 °C 15.6 °C 1013.5 hPa WNW 4.7 km/h 11.3 km/h 77% 0.0 mm 107 W/m2
08:33 19.6 °C 15.5 °C 1013.5 hPa West 4.7 km/h 12.9 km/h 77% 0.0 mm 102 W/m2
08:38 19.6 °C 15.5 °C 1013.9 hPa WNW 6.4 km/h 12.9 km/h 77% 0.0 mm 111 W/m2
08:43 19.6 °C 15.5 °C 1013.5 hPa West 4.7 km/h 12.9 km/h 77% 0.0 mm 121 W/m2
08:48 19.6 °C 15.3 °C 1013.9 hPa West 9.7 km/h 11.3 km/h 76% 0.0 mm 135 W/m2
08:54 19.5 °C 15.2 °C 1013.9 hPa West 9.7 km/h 14.5 km/h 76% 0.0 mm 144 W/m2
08:59 19.4 °C 15.3 °C 1013.9 hPa West 9.7 km/h 16.1 km/h 77% 0.0 mm 137 W/m2
09:04 19.4 °C 15.3 °C 1013.9 hPa West 4.7 km/h 11.3 km/h 77% 0.0 mm 127 W/m2
09:09 19.4 °C 15.3 °C 1013.9 hPa WSW 11.1 km/h 11.3 km/h 77% 0.0 mm 130 W/m2
09:14 19.3 °C 15.2 °C 1013.9 hPa WNW 3.2 km/h 11.3 km/h 77% 0.0 mm 149 W/m2
09:19 19.4 °C 15.3 °C 1013.9 hPa WNW 4.7 km/h 6.4 km/h 77% 0.0 mm 158 W/m2
09:24 19.4 °C 15.1 °C 1013.9 hPa WSW 3.2 km/h 8 km/h 76% 0.0 mm 155 W/m2
09:29 19.4 °C 15.1 °C 1013.9 hPa WNW 1.4 km/h 6.4 km/h 76% 0.0 mm 162 W/m2
09:34 19.6 °C 15 °C 1013.9 hPa SW 4.7 km/h 12.9 km/h 75% 0.0 mm 181 W/m2
09:39 19.7 °C 14.9 °C 1014.2 hPa WSW 4.7 km/h 11.3 km/h 74% 0.0 mm 211 W/m2
09:44 19.8 °C 14.8 °C 1014.2 hPa WNW 6.4 km/h 14.5 km/h 73% 0.0 mm 218 W/m2
09:49 19.8 °C 14.4 °C 1014.2 hPa NW 7.9 km/h 12.9 km/h 71% 0.0 mm 239 W/m2
09:54 19.9 °C 14.3 °C 1014.2 hPa NW 6.4 km/h 12.9 km/h 70% 0.0 mm 262 W/m2
09:59 20.1 °C 14.5 °C 1014.2 hPa NNW 4.7 km/h 9.7 km/h 70% 0.0 mm 306 W/m2
10:04 20.3 °C 14.6 °C 1014.2 hPa West 6.4 km/h 8 km/h 70% 0.0 mm 353 W/m2
10:09 20.5 °C 14.6 °C 1014.2 hPa WNW 4.7 km/h 6.4 km/h 69% 0.0 mm 302 W/m2
10:14 20.7 °C 14.8 °C 1014.2 hPa WNW 6.4 km/h 9.7 km/h 69% 0.0 mm 250 W/m2
10:19 20.6 °C 14.9 °C 1014.2 hPa WSW 7.9 km/h 9.7 km/h 70% 0.0 mm 206 W/m2
10:24 20.4 °C 14.7 °C 1014.2 hPa WNW 11.1 km/h 11.3 km/h 70% 0.0 mm 206 W/m2
10:29 20.4 °C 14.7 °C 1014.2 hPa West 3.2 km/h 12.9 km/h 70% 0.0 mm 221 W/m2
10:34 20.4 °C 14.5 °C 1014.2 hPa WNW 6.4 km/h 8 km/h 69% 0.0 mm 237 W/m2
10:39 20.5 °C 14.4 °C 1014.2 hPa Calm   11.3 km/h 68% 0.0 mm 246 W/m2
10:44 20.7 °C 14.6 °C 1014.6 hPa WNW 3.2 km/h 4.8 km/h 68% 0.0 mm 271 W/m2
10:49 20.8 °C 14.2 °C 1014.6 hPa West 13 km/h 12.9 km/h 66% 0.0 mm 364 W/m2
10:54 20.8 °C 14 °C 1014.6 hPa West 9.7 km/h 12.9 km/h 65% 0.0 mm 355 W/m2
10:59 20.8 °C 13.7 °C 1014.6 hPa West 6.4 km/h 12.9 km/h 64% 0.0 mm 315 W/m2
11:04 20.8 °C 13.7 °C 1014.6 hPa WNW 7.9 km/h 12.9 km/h 64% 0.0 mm 281 W/m2
11:09 20.9 °C 13.6 °C 1014.6 hPa West 6.4 km/h 6.4 km/h 63% 0.0 mm 359 W/m2
11:14 21 °C 13.7 °C 1014.6 hPa NW 7.9 km/h 11.3 km/h 63% 0.0 mm 485 W/m2
11:19 21.2 °C 13.9 °C 1014.6 hPa West 9.7 km/h 11.3 km/h 63% 0.0 mm 519 W/m2
11:24 21.4 °C 14.1 °C 1014.6 hPa SW 9.7 km/h 14.5 km/h 63% 0.0 mm 563 W/m2
11:29 21.4 °C 13.8 °C 1014.6 hPa WNW 7.9 km/h 16.1 km/h 62% 0.0 mm 526 W/m2
11:34 21.6 °C 13.5 °C 1014.6 hPa NW 11.1 km/h 17.7 km/h 60% 0.0 mm 561 W/m2
11:39 21.6 °C 13.8 °C 1014.6 hPa West 6.4 km/h 22.5 km/h 61% 0.0 mm 694 W/m2
11:49 22.3 °C 13.6 °C 1014.2 hPa West 6.4 km/h 17.7 km/h 58% 0.0 mm 759 W/m2
11:54 22.4 °C 14.3 °C 1014.2 hPa West 4.7 km/h 9.7 km/h 60% 0.0 mm 659 W/m2
11:59 22.8 °C 13.8 °C 1014.6 hPa WNW 6.4 km/h 17.7 km/h 57% 0.0 mm 573 W/m2
12:04 22.8 °C 13.8 °C 1014.2 hPa NW 4.7 km/h 14.5 km/h 57% 0.0 mm 489 W/m2
12:09 22.6 °C 13.4 °C 1014.2 hPa WSW 16.3 km/h 17.7 km/h 56% 0.0 mm 654 W/m2
12:14 22.6 °C 13.4 °C 1014.2 hPa West 6.4 km/h 14.5 km/h 56% 0.0 mm 589 W/m2
12:19 22.7 °C 13.2 °C 1014.2 hPa West 6.4 km/h 14.5 km/h 55% 0.0 mm 833 W/m2
12:24 22.7 °C 13.2 °C 1014.2 hPa WNW 7.9 km/h 14.5 km/h 55% 0.0 mm 615 W/m2
12:29 22.9 °C 13.4 °C 1014.2 hPa WSW 11.1 km/h 17.7 km/h 55% 0.0 mm 881 W/m2
12:34 22.9 °C 13.1 °C 1014.2 hPa WSW 13 km/h 19.3 km/h 54% 0.0 mm 689 W/m2
12:39 23.1 °C 13 °C 1014.2 hPa WNW 7.9 km/h 16.1 km/h 53% 0.0 mm 891 W/m2
12:44 23.4 °C 13.6 °C 1014.2 hPa NW 7.9 km/h 19.3 km/h 54% 0.0 mm 680 W/m2
12:49 23.4 °C 12.7 °C 1014.2 hPa West 13 km/h 19.3 km/h 51% 0.0 mm 503 W/m2
12:54 23.4 °C 12.7 °C 1014.2 hPa WNW 6.4 km/h 16.1 km/h 51% 0.0 mm 849 W/m2
12:59 23.6 °C 12.9 °C 1014.2 hPa NNW 9.7 km/h 24.1 km/h 51% 0.0 mm 846 W/m2
13:04 23.6 °C 13.2 °C 1013.9 hPa WNW 4.7 km/h 12.9 km/h 52% 0.0 mm 933 W/m2
13:09 23.8 °C 13.1 °C 1014.2 hPa NW 11.1 km/h 24.1 km/h 51% 0.0 mm 835 W/m2
13:14 24 °C 12.9 °C 1013.9 hPa West 6.4 km/h 14.5 km/h 50% 0.0 mm 527 W/m2
13:19 24.2 °C 13.1 °C 1013.9 hPa West 1.4 km/h 17.7 km/h 50% 0.0 mm 812 W/m2
13:24 24.2 °C 12.2 °C 1013.9 hPa WNW 17.7 km/h 17.7 km/h 47% 0.0 mm 865 W/m2
13:30 23.9 °C 12.2 °C 1013.9 hPa WSW 16.3 km/h 20.9 km/h 48% 0.0 mm 823 W/m2
13:35 23.9 °C 12.2 °C 1013.9 hPa West 3.2 km/h 17.7 km/h 48% 0.0 mm 882 W/m2
13:40 23.9 °C 12.2 °C 1013.5 hPa NW 6.4 km/h 20.9 km/h 48% 0.0 mm 874 W/m2
13:45 24.3 °C 12.6 °C 1013.5 hPa WSW 16.3 km/h 20.9 km/h 48% 0.0 mm 879 W/m2
13:50 24.1 °C 12.1 °C 1013.5 hPa North 17.7 km/h 17.7 km/h 47% 0.0 mm 823 W/m2
13:55 24.3 °C 12.3 °C 1013.5 hPa WSW 4.7 km/h 22.5 km/h 47% 0.0 mm 842 W/m2
14:00 24.4 °C 12 °C 1013.5 hPa West 17.7 km/h 22.5 km/h 46% 0.0 mm 867 W/m2
14:05 24.6 °C 12.5 °C 1013.5 hPa SSW 9.7 km/h 16.1 km/h 47% 0.0 mm 861 W/m2
14:10 24.7 °C 12.6 °C 1013.5 hPa WNW 11.1 km/h 22.5 km/h 47% 0.0 mm 856 W/m2
14:15 24.6 °C 12.5 °C 1013.5 hPa WSW 7.9 km/h 17.7 km/h 47% 0.0 mm 853 W/m2
14:20 24.4 °C 12.7 °C 1013.5 hPa WSW 7.9 km/h 20.9 km/h 48% 0.0 mm 849 W/m2
14:25 24.8 °C 12.1 °C 1013.5 hPa WSW 4.7 km/h 14.5 km/h 45% 0.0 mm 849 W/m2
14:30 25.2 °C 12.1 °C 1013.5 hPa WNW 11.1 km/h 14.5 km/h 44% 0.0 mm 847 W/m2
14:35 25 °C 10.8 °C 1013.5 hPa NNW 7.9 km/h 17.7 km/h 41% 0.0 mm 847 W/m2
14:40 24.9 °C 10.7 °C 1013.5 hPa SW 16.3 km/h 19.3 km/h 41% 0.0 mm 847 W/m2
14:45 24.7 °C 10.6 °C 1013.5 hPa WNW 11.1 km/h 12.9 km/h 41% 0.0 mm 842 W/m2
14:50 24.7 °C 11.3 °C 1013.5 hPa WSW 19.5 km/h 19.3 km/h 43% 0.0 mm 837 W/m2
14:55 24.9 °C 11.8 °C 1013.5 hPa WNW 20.9 km/h 20.9 km/h 44% 0.0 mm 835 W/m2
15:01 25.2 °C 11 °C 1013.5 hPa West 11.1 km/h 24.1 km/h 41% 0.0 mm 830 W/m2
15:06 25.1 °C 11.3 °C 1013.5 hPa West 13 km/h 17.7 km/h 42% 0.0 mm 807 W/m2
15:11 25.2 °C 11 °C 1013.5 hPa West 4.7 km/h 4.8 km/h 41% 0.0 mm 805 W/m2
15:16 25.4 °C 11.6 °C 1013.2 hPa West 11.1 km/h 14.5 km/h 42% 0.0 mm 800 W/m2
15:21 25.6 °C 11.4 °C 1013.2 hPa NW 14.3 km/h 17.7 km/h 41% 0.0 mm 791 W/m2
15:26 25.2 °C 10.6 °C 1013.5 hPa West 9.7 km/h 17.7 km/h 40% 0.0 mm 770 W/m2
15:31 25.1 °C 10.6 °C 1013.2 hPa NW 13 km/h 14.5 km/h 40% 0.0 mm 708 W/m2
15:36 25.1 °C 10.9 °C 1013.2 hPa NW 14.3 km/h 19.3 km/h 41% 0.0 mm 668 W/m2
15:41 25.1 °C 10.9 °C 1013.2 hPa NNW 9.7 km/h 24.1 km/h 41% 0.0 mm 758 W/m2
15:46 25.2 °C 11 °C 1013.2 hPa West 9.7 km/h 22.5 km/h 41% 0.0 mm 754 W/m2
15:51 25.2 °C 11.7 °C 1012.9 hPa NW 6.4 km/h 24.1 km/h 43% 0.0 mm 759 W/m2
15:56 25.2 °C 12.1 °C 1012.9 hPa WSW 13 km/h 19.3 km/h 44% 0.0 mm 724 W/m2
16:01 25.2 °C 12.1 °C 1012.9 hPa WSW 1.4 km/h 6.4 km/h 44% 0.0 mm 726 W/m2
16:06 25.2 °C 12.1 °C 1012.9 hPa NW 4.7 km/h 19.3 km/h 44% 0.0 mm 758 W/m2
16:11 25.4 °C 11.9 °C 1012.9 hPa WNW 9.7 km/h 11.3 km/h 43% 0.0 mm 714 W/m2
16:16 25.4 °C 12.3 °C 1012.9 hPa SW 4.7 km/h 17.7 km/h 44% 0.0 mm 694 W/m2
16:21 25.5 °C 12.4 °C 1012.9 hPa West 6.4 km/h 16.1 km/h 44% 0.0 mm 635 W/m2
16:26 25.6 °C 12.4 °C 1012.9 hPa NW 13 km/h 12.9 km/h 44% 0.0 mm 719 W/m2
16:31 25.4 °C 12.6 °C 1012.9 hPa NW 6.4 km/h 16.1 km/h 45% 0.0 mm 606 W/m2
16:36 25.2 °C 12.4 °C 1012.5 hPa WNW 6.4 km/h 12.9 km/h 45% 0.0 mm 719 W/m2
16:41 25.3 °C 11.8 °C 1012.9 hPa WSW 3.2 km/h 11.3 km/h 43% 0.0 mm 613 W/m2
16:47 25.2 °C 12.1 °C 1012.5 hPa West 9.7 km/h 11.3 km/h 44% 0.0 mm 207 W/m2
16:52 25.1 °C 12.3 °C 1012.9 hPa WSW 7.9 km/h 14.5 km/h 45% 0.0 mm 211 W/m2
16:57 24.9 °C 12.5 °C 1012.9 hPa WNW 7.9 km/h 11.3 km/h 46% 0.0 mm 202 W/m2
17:02 25.1 °C 12.3 °C 1012.9 hPa NNW 3.2 km/h 14.5 km/h 45% 0.0 mm 659 W/m2
17:07 25.2 °C 12.1 °C 1012.9 hPa WNW 13 km/h 17.7 km/h 44% 0.0 mm 185 W/m2
17:12 24.9 °C 12.1 °C 1012.5 hPa WSW 7.9 km/h 14.5 km/h 45% 0.0 mm 139 W/m2
17:17 24.7 °C 12 °C 1012.5 hPa WSW 6.4 km/h 16.1 km/h 45% 0.0 mm 461 W/m2
17:22 24.8 °C 12.1 °C 1012.5 hPa NNW 7.9 km/h 8 km/h 45% 0.0 mm 309 W/m2
17:27 25.1 °C 12 °C 1012.9 hPa WNW 4.7 km/h 16.1 km/h 44% 0.0 mm 663 W/m2
17:32 25.6 °C 11.7 °C 1012.5 hPa WSW 7.9 km/h 11.3 km/h 42% 0.0 mm 506 W/m2
17:37 25.4 °C 11.6 °C 1012.5 hPa WNW 4.7 km/h 11.3 km/h 42% 0.0 mm 559 W/m2
17:42 25.7 °C 11.5 °C 1012.5 hPa West 11.1 km/h 16.1 km/h 41% 0.0 mm 613 W/m2
17:47 25.6 °C 11.4 °C 1012.5 hPa NNW 7.9 km/h 16.1 km/h 41% 0.0 mm 645 W/m2
17:52 25.3 °C 11.5 °C 1012.9 hPa West 4.7 km/h 17.7 km/h 42% 0.0 mm 202 W/m2
17:57 25.1 °C 11.3 °C 1012.5 hPa WNW 19.3 km/h 19.3 km/h 42% 0.0 mm 401 W/m2
18:02 25.1 °C 11.3 °C 1012.5 hPa West 11.1 km/h 14.5 km/h 42% 0.0 mm 350 W/m2
18:07 25.1 °C 11.3 °C 1012.5 hPa West 6.4 km/h 9.7 km/h 42% 0.0 mm 359 W/m2
18:12 25.2 °C 11.4 °C 1012.5 hPa North 3.2 km/h 12.9 km/h 42% 0.0 mm 374 W/m2
18:17 25.4 °C 11.2 °C 1012.5 hPa West 3.2 km/h 6.4 km/h 41% 0.0 mm 475 W/m2
18:22 25.7 °C 11.8 °C 1012.5 hPa WSW 6.4 km/h 12.9 km/h 42% 0.0 mm 394 W/m2
18:27 25.6 °C 11 °C 1012.5 hPa NNW 6.4 km/h 12.9 km/h 40% 0.0 mm 287 W/m2
18:32 25.3 °C 11.1 °C 1012.5 hPa NW 9.7 km/h 9.7 km/h 41% 0.0 mm 274 W/m2
18:37 25.3 °C 11.1 °C 1012.5 hPa North 7.9 km/h 11.3 km/h 41% 0.0 mm 360 W/m2
18:42 25.2 °C 11 °C 1012.5 hPa West 4.7 km/h 12.9 km/h 41% 0.0 mm 255 W/m2
18:47 25.2 °C 11.4 °C 1012.2 hPa West 6.4 km/h 9.7 km/h 42% 0.0 mm 123 W/m2
18:52 24.9 °C 11.1 °C 1012.2 hPa WNW 3.2 km/h 9.7 km/h 42% 0.0 mm 156 W/m2
18:58 24.9 °C 11.5 °C 1012.2 hPa Calm   4.8 km/h 43% 0.0 mm 229 W/m2
19:03 25 °C 11.2 °C 1012.2 hPa NNW 1.4 km/h 9.7 km/h 42% 0.0 mm 179 W/m2
19:08 24.9 °C 11.1 °C 1012.2 hPa NNW 3.2 km/h 6.4 km/h 42% 0.0 mm 144 W/m2
19:13 24.8 °C 11.4 °C 1012.2 hPa NNW 6.4 km/h 6.4 km/h 43% 0.0 mm 176 W/m2
19:18 25 °C 11.2 °C 1012.2 hPa NNE 4.7 km/h 6.4 km/h 42% 0.0 mm 262 W/m2
19:23 25.2 °C 11.4 °C 1012.5 hPa WNW 7.9 km/h 12.9 km/h 42% 0.0 mm 209 W/m2
19:28 25.2 °C 11.4 °C 1012.2 hPa WSW 11.1 km/h 11.3 km/h 42% 0.0 mm 148 W/m2
19:33 24.9 °C 11.5 °C 1012.2 hPa WNW 3.2 km/h 9.7 km/h 43% 0.0 mm 114 W/m2
19:38 24.8 °C 11.7 °C 1012.2 hPa WNW 4.7 km/h 8 km/h 44% 0.0 mm 172 W/m2
19:43 24.7 °C 11.6 °C 1012.5 hPa West 9.7 km/h 9.7 km/h 44% 0.0 mm 97 W/m2
19:48 24.5 °C 11.8 °C 1012.5 hPa West 3.2 km/h 4.8 km/h 45% 0.0 mm 76 W/m2
19:53 24.3 °C 11.3 °C 1012.5 hPa NW 4.7 km/h 9.7 km/h 44% 0.0 mm 79 W/m2
19:58 24.3 °C 11.6 °C 1012.5 hPa West 6.4 km/h 8 km/h 45% 0.0 mm 91 W/m2
20:03 24.2 °C 11.5 °C 1012.5 hPa NW 3.2 km/h 9.7 km/h 45% 0.0 mm 79 W/m2
20:08 24.3 °C 11.6 °C 1012.5 hPa West 1.4 km/h 9.7 km/h 45% 0.0 mm 114 W/m2
20:13 24.4 °C 11.4 °C 1012.5 hPa NW 6.4 km/h 8 km/h 44% 0.0 mm 100 W/m2
20:18 24.4 °C 11.7 °C 1012.5 hPa West 3.2 km/h 6.4 km/h 45% 0.0 mm 72 W/m2
20:23 24.1 °C 12.1 °C 1012.5 hPa West 3.2 km/h 4.8 km/h 47% 0.0 mm 47 W/m2
20:28 23.8 °C 11.8 °C 1012.5 hPa West 3.2 km/h 6.4 km/h 47% 0.0 mm 42 W/m2
20:33 23.4 °C 12.1 °C 1012.5 hPa West 6.4 km/h 6.4 km/h 49% 0.0 mm 40 W/m2
20:38 23.2 °C 11.9 °C 1012.5 hPa West 4.7 km/h 9.7 km/h 49% 0.0 mm 35 W/m2
20:43 23.1 °C 12.1 °C 1012.9 hPa WNW 1.4 km/h 6.4 km/h 50% 0.0 mm 26 W/m2
20:48 22.9 °C 11.9 °C 1012.5 hPa NW 7.9 km/h 8 km/h 50% 0.0 mm 23 W/m2
20:53 22.8 °C 12.1 °C 1012.5 hPa WNW 3.2 km/h 6.4 km/h 51% 0.0 mm 19 W/m2
20:58 22.6 °C 11.9 °C 1012.5 hPa West 3.2 km/h 6.4 km/h 51% 0.0 mm 16 W/m2
21:04 22.6 °C 11.9 °C 1012.9 hPa West 3.2 km/h 8 km/h 51% 0.0 mm 12 W/m2
21:09 22.4 °C 12.1 °C 1012.9 hPa WNW 1.4 km/h 6.4 km/h 52% 0.0 mm 5 W/m2
21:14 22.3 °C 12 °C 1012.9 hPa WSW 3.2 km/h 6.4 km/h 52% 0.0 mm 0 W/m2
21:19 22.1 °C 12.1 °C 1012.9 hPa West 4.7 km/h 6.4 km/h 53% 0.0 mm 0 W/m2
21:24 21.9 °C 11.9 °C 1012.9 hPa West 4.7 km/h 6.4 km/h 53% 0.0 mm 0 W/m2
21:29 21.8 °C 11.8 °C 1012.9 hPa West 3.2 km/h 6.4 km/h 53% 0.0 mm 0 W/m2
21:34 21.7 °C 11.7 °C 1012.9 hPa NNW 1.4 km/h 6.4 km/h 53% 0.0 mm 0 W/m2
21:39 21.7 °C 11.7 °C 1012.9 hPa West 4.7 km/h 4.8 km/h 53% 0.0 mm 0 W/m2
21:44 21.6 °C 11.6 °C 1012.9 hPa West 4.7 km/h 6.4 km/h 53% 0.0 mm 0 W/m2
21:49 21.5 °C 11.5 °C 1012.9 hPa WSW 3.2 km/h 6.4 km/h 53% 0.0 mm 0 W/m2
21:54 21.5 °C 11.2 °C 1012.9 hPa WNW 3.2 km/h 6.4 km/h 52% 0.0 mm 0 W/m2
21:59 21.5 °C 11.2 °C 1012.9 hPa WNW 1.4 km/h 8 km/h 52% 0.0 mm 0 W/m2
22:04 21.4 °C 11.4 °C 1012.9 hPa West 3.2 km/h 3.2 km/h 53% 0.0 mm 0 W/m2
22:09 21.3 °C 11.3 °C 1012.9 hPa WNW 1.4 km/h 6.4 km/h 53% 0.0 mm 0 W/m2
22:14 21.2 °C 11.5 °C 1012.9 hPa West 3.2 km/h 3.2 km/h 54% 0.0 mm 0 W/m2
22:20 21 °C 11.3 °C 1012.9 hPa WNW 3.2 km/h 6.4 km/h 54% 0.0 mm 0 W/m2
22:25 20.8 °C 11.4 °C 1012.9 hPa WNW 3.2 km/h 6.4 km/h 55% 0.0 mm 0 W/m2
22:30 20.8 °C 11.4 °C 1012.9 hPa WNW 3.2 km/h 6.4 km/h 55% 0.0 mm 0 W/m2
22:35 20.7 °C 11.6 °C 1013.2 hPa WNW 3.2 km/h 6.4 km/h 56% 0.0 mm 0 W/m2
22:40 20.7 °C 11.6 °C 1013.2 hPa West 4.7 km/h 4.8 km/h 56% 0.0 mm 0 W/m2
22:45 20.7 °C 11.9 °C 1013.2 hPa West 1.4 km/h 4.8 km/h 57% 0.0 mm 0 W/m2
22:50 20.5 °C 12 °C 1013.2 hPa WSW 4.7 km/h 6.4 km/h 58% 0.0 mm 0 W/m2
22:55 20.4 °C 12.1 °C 1012.9 hPa West 4.7 km/h 6.4 km/h 59% 0.0 mm 0 W/m2
23:00 20.3 °C 12.3 °C 1012.9 hPa WSW 3.2 km/h 4.8 km/h 60% 0.0 mm 0 W/m2
23:05 20.2 °C 12.4 °C 1012.9 hPa WSW 3.2 km/h 6.4 km/h 61% 0.0 mm 0 W/m2
23:10 20.1 °C 12.3 °C 1012.9 hPa West 3.2 km/h 3.2 km/h 61% 0.0 mm 0 W/m2
23:15 19.9 °C 12.4 °C 1012.9 hPa WSW 3.2 km/h 6.4 km/h 62% 0.0 mm 0 W/m2
23:20 19.8 °C 12.3 °C 1012.9 hPa WSW 3.2 km/h 4.8 km/h 62% 0.0 mm 0 W/m2
23:25 19.8 °C 12.6 °C 1012.9 hPa WSW 3.2 km/h 6.4 km/h 63% 0.0 mm 0 W/m2
23:30 19.7 °C 12.7 °C 1012.9 hPa WSW 1.4 km/h 3.2 km/h 64% 0.0 mm 0 W/m2
23:35 19.6 °C 12.6 °C 1013.2 hPa WSW 1.4 km/h 4.8 km/h 64% 0.0 mm 0 W/m2
23:40 19.5 °C 12.7 °C 1012.9 hPa WNW 1.4 km/h 4.8 km/h 65% 0.0 mm 0 W/m2
23:45 19.4 °C 12.7 °C 1012.9 hPa WSW 1.4 km/h 3.2 km/h 65% 0.0 mm 0 W/m2
23:50 19.3 °C 12.8 °C 1013.2 hPa WSW 4.7 km/h 4.8 km/h 66% 0.0 mm 0 W/m2
23:55 19.3 °C 12.8 °C 1012.9 hPa WSW 3.2 km/h 4.8 km/h 66% 0.0 mm 0 W/m2
Juneau County Weather
Compliments of Weather Underground - 4 mb